Home   Weather   Wädenswil   Past weeks

Flag for Switzerland Past Weather in Wädenswil, Zurich, Switzerland — Yesterday and Last 2 Weeks

Now
22 °F

Cold.


Feels Like: 22 °F
Forecast: 20 / 36 °F
Wind: 2 mph from Southwest

Location: Zuerich-Fluntern

Current Time: Jan 22, 2017 at 11:30:41 pm

Latest Report: Jan 22, 2017 at 10:00 pm


Visibility: N/A

Pressure: 30.34 "Hg

Humidity: 94%

Dew Point: 20 °F

Location of WädenswilLocation

Past Weather in Wädenswil — Graph

°F

Wädenswil Temperature Yesterday

Maximum temperature yesterday: 23 °F (at 2:00 pm)
Minimum temperature yesterday: 19 °F (at 4:00 am)
Average temperature yesterday: 21 °F

High & Low Weather Summary for the Past Weeks

 TemperatureHumidityPressure
High41 °F (Jan 12, 2:00 pm)99% (Jan 10, 6:00 pm)30.55 "Hg (Jan 10, 6:00 pm)
Low18 °F (Jan 22, 8:00 am)65% (Jan 13, 12:00 pm)29.55 "Hg (Jan 13, 12:00 am)
Average27 °F86%30.26 "Hg
* Reported Jan 7 10:00 pm — Jan 22 10:00 pm, Wädenswil, Weather by CustomWeather, © 2017

Note: Actual official high and low records may vary slightly from our data, if they occured in-between our weather recording intervals... More about our weather records

Advertising

Wädenswil Weather History for the Previous 24 Hours

Scroll right to see more
 ConditionsComfort  
Time TempWeatherWind HumidityBarometerVisibility
10:00 pm
Sun, Jan 22
22 °FCold.2 mph94%30.34 "HgN/A
9:00 pm22 °FCold.1 mph93%30.34 "HgN/A
8:00 pm22 °FCold.2 mph91%30.33 "HgN/A
7:00 pm22 °FOvercast.2 mph90%30.32 "HgN/A
6:00 pm22 °FCold.1 mph89%30.31 "HgN/A
5:00 pm23 °FCold.2 mph87%30.30 "HgN/A
4:00 pm23 °FCold.2 mph86%30.31 "HgN/A
3:00 pm22 °FCold.1 mph86%30.30 "HgN/A
2:00 pm22 °FCold.2 mph90%30.31 "HgN/A
1:00 pm21 °FCold.1 mph90%30.33 "HgN/A
12:00 pm20 °FCold.2 mph92%30.36 "HgN/A
11:00 am19 °FCold.2 mph93%30.38 "HgN/A
10:00 am18 °FCold.3 mph95%30.39 "HgN/A
9:00 am18 °FCold.3 mph95%30.38 "HgN/A
8:00 am18 °FCold.3 mph95%30.38 "HgN/A
7:00 am18 °FCold.3 mph96%30.38 "HgN/A
6:00 am18 °FCold.2 mph95%30.39 "HgN/A
5:00 am18 °FCold.2 mph95%30.40 "HgN/A
4:00 am18 °FCold.3 mph96%30.41 "HgN/A
3:00 am19 °FCold.2 mph97%30.42 "HgN/A
2:00 am19 °FCold.2 mph97%30.42 "HgN/A
1:00 am18 °FCold.3 mph97%30.43 "HgN/A
12:00 am19 °FCold.3 mph95%30.44 "HgN/A
11:00 pm
Sat, Jan 21
20 °FCold.3 mph95%30.44 "HgN/A
Weather by CustomWeather, © 2017

See weather overviewHow to use our weather pages